Regional Weather Roundup
Issued by NWS Cleveland, OH

Home | Current Version | Previous Version | Graphics & Text | Print | Product List | Glossary On
Versions: 1 2 3 4 5 6 7 8 9 10 11 12 13 14 15 16 17 18 19 20 21 22 23 24 25 26 27 28 29 30 31 32 33 34 35 36 37 38 39 40 41 42 43 44 45 46 47 48 49 50
000
ASUS41 KCLE 251000
RWRCLE
OHIO REGIONAL WEATHER ROUNDUP
NATIONAL WEATHER SERVICE WILMINGTON, OH
600 AM EDT SAT OCT 25 2014

NOTE: "FAIR" INDICATES FEW OR NO CLOUDS BELOW 12,000 FEET WITH NO
SIGNIFICANT WEATHER AND/OR OBSTRUCTIONS TO VISIBILITY.

OHZ001>008-015>018-024>027-034-035-043-044-251100-
   NORTHWEST OHIO

CITY           SKY/WX    TMP DP  RH WIND       PRES   REMARKS
DEFIANCE       CLOUDY    52  49  89 S7        29.90F FOG
FINDLAY        MOCLDY    52  48  86 SW9       29.92F
TOLEDO EXPRESS CLOUDY    50  48  93 SW6       29.89F FOG
TOLEDO METCALF PTCLDY    49  46  90 SW7       29.90F FOG
LIMA           MOCLDY    53  48  83 S7        29.95S
$$

OHZ009>014-019>023-028>033-038-089-251100-
   NORTHEAST OHIO

CITY           SKY/WX    TMP DP  RH WIND       PRES   REMARKS
CLE-HOPKINS    PTCLDY    51  44  77 SW7       29.94S
CLE-LAKEFRONT  MOCLDY    54  45  71 SW14      29.91S
CUY CO. ARPT   NOT AVBL
LORAIN-ELYRIA  MOCLDY    47  43  86 SW8       29.93S
ASHTABULA      CLOUDY    50  43  77 SW3       29.92S
AKRON-CANTON   PTCLDY    45  37  73 SW6       29.95S
WOOSTER        NOT AVBL
MANSFIELD      MOCLDY    49  46  90 SW7       29.95S
YOUNGSTOWN     CLOUDY    47  40  76 SW5       29.93S
$$

OHZ042-051>053-060>062-070>072-077>081-251100-
  SOUTHWEST OHIO

CITY           SKY/WX    TMP DP  RH WIND       PRES   REMARKS
CINC-COVINGTON MOCLDY    48  43  82 S5        30.00F
CINC-LUNKEN    CLEAR     41  40  96 CALM      30.02F FOG
HAMILTON       CLEAR     40  39  97 CALM      30.00F FOG
DAYTON         NOT AVBL
WRIGHT-PAT AFB CLEAR     46  42  86 SE3       29.98F
DAYTON GENERAL CLEAR     48  44  86 S3        29.99S
WILMINGTON     CLEAR     45  40  82 S5        30.00S
$$

OHZ036-037-039>041-045>050-054>059-063>069-073>076-082>088-251100-
  CENTRAL AND SOUTHEAST OHIO

CITY           SKY/WX    TMP DP  RH WIND       PRES   REMARKS
COLUMBUS       CLOUDY    46  39  76 CALM      29.98F
OSU AIRPORT    MOCLDY    45  40  82 W3        29.98S
BOLTON FIELD   NOT AVBL
RICKENBACK AFB NOT AVBL
NEWARK         CLOUDY    40  37  89 CALM      29.98S
MARION         MOCLDY    49  44  83 SW7       29.96S HAZE
LANCASTER      MOCLDY    42  39  89 SE3       29.99S
ZANESVILLE     CLEAR     37  35  92 CALM      29.99S
NEW PHILLY     MOCLDY    42  40  92 SE5       29.98S
$$



USA.gov is the U.S. government's official web portal to all federal, state and local government web resources and services.